Location: ???????
(55.4362°N, 38.1183°E)
Time: 18:38:18
(UTC+00:00)

Cosmos 2278 Rocket - Pass Details

Date: 28 October 2021
Orbit: 841 x 845 km, 71.0° (Epoch: 28 November)

Event Time Altitude Azimuth Distance (km) Brightness Sun altitude
Rises 18:31:28 0° 319° (NW) 3,417 6.3 -37.8°
Reaches altitude 10° 18:34:44 10° 300° (WNW) 2,476 5.3 -38.2°
Maximum altitude 18:38:15 17° 261° (W) 2,014 4.5 -38.6°
Enters shadow 18:38:22 17° 260° (W) 2,014 4.5 -38.6°
